AVA9824 SKCL-SKBO

Flight info

Callsign AVA9824
Flight time 0h 29m
Altitude 23000
Route TOLIM1F TOLIM TOLIM5E
Aircraft A320/M-SDE3FGHIRWY/LB1

Departure

Time 2026-05-03 21:32
Airport Alfonso Bonilla Aragon International Airport (SKCL)

Arrival

Time 2026-05-03 22:01
Airport El Dorado International Airport (SKBO)
Time Latitude Longitude Altitude Speed Heading
2026-05-03 21:05 3.53823 -76.38701 3163 ft 0 kts 265°
2026-05-03 21:23 3.53823 -76.38699 3163 ft 2 kts 265°
2026-05-03 21:24 3.53825 -76.38677 3163 ft 3 kts 263°
2026-05-03 21:24 3.53829 -76.38655 3163 ft 3 kts 255°
2026-05-03 21:24 3.53837 -76.38634 3163 ft 3 kts 232°
2026-05-03 21:24 3.53849 -76.38623 3163 ft 3 kts 169°
2026-05-03 21:25 3.53856 -76.38625 3163 ft 1 kts 145°
2026-05-03 21:25 3.53858 -76.38627 3163 ft 0 kts 145°
2026-05-03 21:28 3.53848 -76.38620 3163 ft 3 kts 145°
2026-05-03 21:28 3.53816 -76.38598 3163 ft 8 kts 146°
2026-05-03 21:28 3.53751 -76.38554 3164 ft 14 kts 146°
2026-05-03 21:28 3.53658 -76.38488 3163 ft 17 kts 144°
2026-05-03 21:29 3.53565 -76.38461 3161 ft 13 kts 188°
2026-05-03 21:29 3.53487 -76.38475 3162 ft 10 kts 190°
2026-05-03 21:29 3.53414 -76.38488 3162 ft 13 kts 189°
2026-05-03 21:29 3.53299 -76.38507 3161 ft 19 kts 189°
2026-05-03 21:30 3.53163 -76.38531 3161 ft 20 kts 189°
2026-05-03 21:30 3.53034 -76.38551 3162 ft 10 kts 184°
2026-05-03 21:30 3.52995 -76.38505 3160 ft 10 kts 102°
2026-05-03 21:30 3.53000 -76.38433 3159 ft 10 kts 64°
2026-05-03 21:31 3.53039 -76.38384 3158 ft 11 kts
2026-05-03 21:31 3.53230 -76.38355 3158 ft 58 kts
2026-05-03 21:31 3.53858 -76.38247 3166 ft 122 kts 10°
2026-05-03 21:31 3.54875 -76.38073 3209 ft 168 kts
2026-05-03 21:32 3.56026 -76.37878 3896 ft 166 kts
2026-05-03 21:32 3.57170 -76.37675 4507 ft 169 kts
2026-05-03 21:32 3.58335 -76.37465 5057 ft 170 kts
2026-05-03 21:32 3.59487 -76.37264 5621 ft 170 kts
2026-05-03 21:33 3.60653 -76.37057 6162 ft 170 kts
2026-05-03 21:33 3.61861 -76.36847 6481 ft 186 kts
2026-05-03 21:33 3.63199 -76.36604 6731 ft 206 kts 14°
2026-05-03 21:33 3.64508 -76.35897 6911 ft 226 kts 43°
2026-05-03 21:34 3.65701 -76.34736 7125 ft 251 kts 45°
2026-05-03 21:34 3.66997 -76.33453 7437 ft 274 kts 45°
2026-05-03 21:34 3.68404 -76.32055 7890 ft 292 kts 45°
2026-05-03 21:34 3.69865 -76.30598 8607 ft 300 kts 46°
2026-05-03 21:35 3.71356 -76.29113 9342 ft 305 kts 46°
2026-05-03 21:35 3.72873 -76.27610 10115 ft 308 kts 45°
2026-05-03 21:35 3.74398 -76.26100 10923 ft 309 kts 45°
2026-05-03 21:35 3.75929 -76.24586 11727 ft 310 kts 45°
2026-05-03 21:36 3.77466 -76.23068 12541 ft 311 kts 45°
2026-05-03 21:36 3.79012 -76.21540 13319 ft 313 kts 45°
2026-05-03 21:36 3.80564 -76.20003 14056 ft 315 kts 45°
2026-05-03 21:36 3.82125 -76.18458 14767 ft 317 kts 45°
2026-05-03 21:37 3.83704 -76.16899 15449 ft 320 kts 45°
2026-05-03 21:37 3.85297 -76.15325 16116 ft 323 kts 45°
2026-05-03 21:37 3.86900 -76.13737 16740 ft 325 kts 46°
2026-05-03 21:37 3.88516 -76.12137 17380 ft 328 kts 46°
2026-05-03 21:38 3.90144 -76.10529 18001 ft 330 kts 46°
2026-05-03 21:38 3.91814 -76.08879 18242 ft 347 kts 46°
2026-05-03 21:38 3.93569 -76.07142 18370 ft 363 kts 46°
2026-05-03 21:38 3.95404 -76.05328 18502 ft 379 kts 46°
2026-05-03 21:39 3.97315 -76.03439 18631 ft 393 kts 46°
2026-05-03 21:39 3.99284 -76.01490 18926 ft 402 kts 46°
2026-05-03 21:39 4.01285 -75.99508 19392 ft 406 kts 46°
2026-05-03 21:39 4.03307 -75.97508 19888 ft 410 kts 46°
2026-05-03 21:40 4.05344 -75.95495 20349 ft 413 kts 46°
2026-05-03 21:40 4.07392 -75.93472 20805 ft 415 kts 46°
2026-05-03 21:40 4.09454 -75.91434 21246 ft 418 kts 46°
2026-05-03 21:40 4.11455 -75.89311 21679 ft 420 kts 52°
2026-05-03 21:41 4.13131 -75.86919 22091 ft 421 kts 58°
2026-05-03 21:41 4.14740 -75.84459 22479 ft 423 kts 58°
2026-05-03 21:41 4.16340 -75.82022 22844 ft 425 kts 58°
2026-05-03 21:41 4.17972 -75.79539 22961 ft 429 kts 58°
2026-05-03 21:42 4.19655 -75.76979 22982 ft 439 kts 58°
2026-05-03 21:42 4.21327 -75.74436 23010 ft 446 kts 58°
2026-05-03 21:42 4.23040 -75.71831 22987 ft 448 kts 58°
2026-05-03 21:42 4.24756 -75.69220 22989 ft 448 kts 58°
2026-05-03 21:43 4.26470 -75.66610 22989 ft 449 kts 58°
2026-05-03 21:43 4.28183 -75.63999 23007 ft 449 kts 58°
2026-05-03 21:43 4.29921 -75.61350 22975 ft 449 kts 58°
2026-05-03 21:43 4.31615 -75.58773 22979 ft 449 kts 58°
2026-05-03 21:44 4.33355 -75.56126 22981 ft 449 kts 58°
2026-05-03 21:44 4.35046 -75.53545 22978 ft 449 kts 58°
2026-05-03 21:44 4.36758 -75.50928 22973 ft 449 kts 58°
2026-05-03 21:44 4.38436 -75.48297 22966 ft 448 kts 60°
2026-05-03 21:45 4.40019 -75.45607 22960 ft 448 kts 61°
2026-05-03 21:45 4.41533 -75.42872 22956 ft 449 kts 63°
2026-05-03 21:45 4.43007 -75.40120 22961 ft 448 kts 63°
2026-05-03 21:45 4.44475 -75.37362 22956 ft 448 kts 63°
2026-05-03 21:46 4.45954 -75.34613 22956 ft 449 kts 63°
2026-05-03 21:46 4.47453 -75.31870 22954 ft 449 kts 62°
2026-05-03 21:46 4.48971 -75.29132 22950 ft 449 kts 62°
2026-05-03 21:46 4.50497 -75.26401 22946 ft 449 kts 62°
2026-05-03 21:47 4.52023 -75.23676 22943 ft 449 kts 62°
2026-05-03 21:47 4.53550 -75.20949 22944 ft 448 kts 62°
2026-05-03 21:47 4.55075 -75.18219 22943 ft 449 kts 62°
2026-05-03 21:47 4.56593 -75.15489 22945 ft 449 kts 62°
2026-05-03 21:48 4.58111 -75.12753 22947 ft 449 kts 62°
2026-05-03 21:48 4.59630 -75.10017 22943 ft 450 kts 62°
2026-05-03 21:48 4.61151 -75.07281 22941 ft 450 kts 62°
2026-05-03 21:48 4.62669 -75.04548 22941 ft 445 kts 62°
2026-05-03 21:49 4.64152 -75.01882 22952 ft 433 kts 62°
2026-05-03 21:49 4.65611 -74.99257 22952 ft 430 kts 62°
2026-05-03 21:49 4.67062 -74.96640 22952 ft 429 kts 62°
2026-05-03 21:49 4.68514 -74.94024 22943 ft 429 kts 62°
2026-05-03 21:50 4.69966 -74.91411 22943 ft 429 kts 62°
2026-05-03 21:50 4.71418 -74.88796 22943 ft 429 kts 62°
2026-05-03 21:50 4.72867 -74.86187 22937 ft 425 kts 63°
2026-05-03 21:50 4.74088 -74.83557 22636 ft 412 kts 68°
2026-05-03 21:51 4.75208 -74.80885 21591 ft 420 kts 69°
2026-05-03 21:51 4.76315 -74.78174 20833 ft 420 kts 69°
2026-05-03 21:51 4.77406 -74.75473 20203 ft 416 kts 69°
2026-05-03 21:51 4.78488 -74.72798 19619 ft 412 kts 69°
2026-05-03 21:52 4.79563 -74.70150 18831 ft 411 kts 69°
2026-05-03 21:52 4.80638 -74.67521 17797 ft 407 kts 69°
2026-05-03 21:52 4.81707 -74.64913 17561 ft 394 kts 69°
2026-05-03 21:52 4.82713 -74.62467 17425 ft 365 kts 69°
2026-05-03 21:53 4.83649 -74.60197 17273 ft 340 kts 69°
2026-05-03 21:53 4.84533 -74.58055 16818 ft 327 kts 69°
2026-05-03 21:53 4.85389 -74.55968 16174 ft 321 kts 69°
2026-05-03 21:53 4.86231 -74.53909 15491 ft 318 kts 69°
2026-05-03 21:54 4.87065 -74.51867 14806 ft 315 kts 69°
2026-05-03 21:54 4.87891 -74.49845 14126 ft 312 kts 68°
2026-05-03 21:54 4.88710 -74.47846 13438 ft 309 kts 68°
2026-05-03 21:54 4.89488 -74.45854 12849 ft 303 kts 75°
2026-05-03 21:55 4.89741 -74.43816 12518 ft 288 kts 92°
2026-05-03 21:55 4.89413 -74.41874 12292 ft 280 kts 108°
2026-05-03 21:55 4.88599 -74.40141 12185 ft 272 kts 122°
2026-05-03 21:55 4.87488 -74.38636 12050 ft 265 kts 126°
2026-05-03 21:56 4.86392 -74.37191 11928 ft 256 kts 126°
2026-05-03 21:56 4.85332 -74.35789 11865 ft 247 kts 126°
2026-05-03 21:56 4.84315 -74.34445 11884 ft 239 kts 126°
2026-05-03 21:56 4.83315 -74.33122 11901 ft 237 kts 126°
2026-05-03 21:57 4.82320 -74.31807 11876 ft 236 kts 126°
2026-05-03 21:57 4.81339 -74.30508 11677 ft 230 kts 126°
2026-05-03 21:57 4.80382 -74.29246 11348 ft 225 kts 127°
2026-05-03 21:57 4.79450 -74.28015 11057 ft 218 kts 127°
2026-05-03 21:58 4.78546 -74.26820 10774 ft 212 kts 127°
2026-05-03 21:58 4.77681 -74.25677 10507 ft 197 kts 128°
2026-05-03 21:58 4.76895 -74.24639 10257 ft 178 kts 128°
2026-05-03 21:58 4.76175 -74.23687 10024 ft 166 kts 128°
2026-05-03 21:59 4.75488 -74.22780 9811 ft 161 kts 129°
2026-05-03 21:59 4.74804 -74.21877 9591 ft 165 kts 129°
2026-05-03 21:59 4.74107 -74.20957 9375 ft 166 kts 129°
2026-05-03 21:59 4.73408 -74.20034 9153 ft 166 kts 129°
2026-05-03 22:00 4.72711 -74.19113 8951 ft 166 kts 130°
2026-05-03 22:00 4.72022 -74.18189 8735 ft 164 kts 129°
2026-05-03 22:00 4.71330 -74.17281 8520 ft 163 kts 128°
2026-05-03 22:00 4.70654 -74.16386 8377 ft 152 kts 129°
2026-05-03 22:01 4.70112 -74.15669 8373 ft 104 kts 127°
2026-05-03 22:01 4.69805 -74.15264 8374 ft 42 kts 126°
2026-05-03 22:01 4.69723 -74.15032 8373 ft 34 kts 97°
2026-05-03 22:01 4.69710 -74.14899 8373 ft 6 kts 90°
2026-05-03 22:02 4.69721 -74.14851 8373 ft 10 kts 60°
2026-05-03 22:02 4.69787 -74.14794 8373 ft 16 kts 36°
2026-05-03 22:02 4.69851 -74.14735 8372 ft 9 kts 76°
2026-05-03 22:02 4.69830 -74.14683 8373 ft 7 kts 126°
2026-05-03 22:03 4.69801 -74.14646 8373 ft 7 kts 129°
2026-05-03 22:03 4.69768 -74.14605 8373 ft 8 kts 128°
2026-05-03 22:03 4.69750 -74.14564 8373 ft 5 kts 71°
2026-05-03 22:03 4.69771 -74.14544 8373 ft 3 kts 34°
2026-05-03 22:04 4.69783 -74.14535 8373 ft 1 kts 37°
2026-05-03 22:04 4.69785 -74.14534 8373 ft 0 kts 37°